Year,Month,Day,Hour,Minute,Value (Times are PST for windspeed in km/hr)
2016,03,12,00,00,1.00
2016,03,12,00,01,1.70
2016,03,12,00,02,1.10
2016,03,12,00,03,0.80
2016,03,12,00,04,0.40
2016,03,12,00,05,0.80
2016,03,12,00,06,1.00
2016,03,12,00,07,2.10
2016,03,12,00,08,2.30
2016,03,12,00,09,2.40
2016,03,12,00,10,3.30
2016,03,12,00,11,3.10
2016,03,12,00,12,3.00
2016,03,12,00,13,2.60
2016,03,12,00,14,2.60
2016,03,12,00,15,2.10
2016,03,12,00,16,2.20
2016,03,12,00,17,2.40
2016,03,12,00,18,2.10
2016,03,12,00,19,0.80
2016,03,12,00,20,0.60
2016,03,12,00,21,1.00
2016,03,12,00,22,1.90
2016,03,12,00,23,2.00
2016,03,12,00,24,1.80
2016,03,12,00,25,1.50
2016,03,12,00,26,2.20
2016,03,12,00,27,1.80
2016,03,12,00,28,2.80
2016,03,12,00,29,3.10
2016,03,12,00,30,3.10
2016,03,12,00,31,3.20
2016,03,12,00,32,2.20
2016,03,12,00,33,1.80
2016,03,12,00,34,2.90
2016,03,12,00,35,3.20
2016,03,12,00,36,2.90
2016,03,12,00,37,3.10
2016,03,12,00,38,2.30
2016,03,12,00,39,2.60
2016,03,12,00,40,3.10
2016,03,12,00,41,3.50
2016,03,12,00,42,3.90
2016,03,12,00,43,3.40
2016,03,12,00,44,2.40
2016,03,12,00,45,2.00
2016,03,12,00,46,1.50
2016,03,12,00,47,2.40
2016,03,12,00,48,2.10
2016,03,12,00,49,2.10
2016,03,12,00,50,1.30
2016,03,12,00,51,0.90
2016,03,12,00,52,0.60
2016,03,12,00,53,0.40
2016,03,12,00,54,2.40
2016,03,12,00,55,2.10
2016,03,12,00,56,0.70
2016,03,12,00,57,0.50
2016,03,12,00,58,0.00
2016,03,12,00,59,0.00
2016,03,12,01,00,0.00
2016,03,12,01,01,0.30
2016,03,12,01,02,0.00
2016,03,12,01,03,0.00
2016,03,12,01,04,0.00
2016,03,12,01,05,0.00
2016,03,12,01,06,0.00
2016,03,12,01,07,1.10
2016,03,12,01,08,1.50
2016,03,12,01,09,1.60
2016,03,12,01,10,2.00
2016,03,12,01,11,2.90
2016,03,12,01,12,3.30
2016,03,12,01,13,2.80
2016,03,12,01,14,2.70
2016,03,12,01,15,2.20
2016,03,12,01,16,1.30
2016,03,12,01,17,1.60
2016,03,12,01,18,1.00
2016,03,12,01,19,1.80
2016,03,12,01,20,2.70
2016,03,12,01,21,3.80
2016,03,12,01,22,2.80
2016,03,12,01,23,2.60
2016,03,12,01,24,2.40
2016,03,12,01,25,2.50
2016,03,12,01,26,2.40
2016,03,12,01,27,2.00
2016,03,12,01,28,1.70
2016,03,12,01,29,0.30
2016,03,12,01,30,0.00
2016,03,12,01,31,0.00
2016,03,12,01,32,0.00
2016,03,12,01,33,0.00
2016,03,12,01,34,0.00
2016,03,12,01,35,0.30
2016,03,12,01,36,1.40
2016,03,12,01,37,0.10
2016,03,12,01,38,0.10
2016,03,12,01,39,1.70
2016,03,12,01,40,2.60
2016,03,12,01,41,2.80
2016,03,12,01,42,3.00
2016,03,12,01,43,3.10
2016,03,12,01,44,2.40
2016,03,12,01,45,1.50
2016,03,12,01,46,1.90
2016,03,12,01,47,0.90
2016,03,12,01,48,0.50
2016,03,12,01,49,0.00
2016,03,12,01,50,0.40
2016,03,12,01,51,1.50
2016,03,12,01,52,0.90
2016,03,12,01,53,0.10
2016,03,12,01,54,1.50
2016,03,12,01,55,2.10
2016,03,12,01,56,0.70
2016,03,12,01,57,0.50
2016,03,12,01,58,1.50
2016,03,12,01,59,1.70
2016,03,12,02,00,1.90
2016,03,12,02,01,2.10
2016,03,12,02,02,1.80
2016,03,12,02,03,0.80
2016,03,12,02,04,0.00
2016,03,12,02,05,0.30
2016,03,12,02,06,0.90
2016,03,12,02,07,0.10
2016,03,12,02,08,0.40
2016,03,12,02,09,2.60
2016,03,12,02,10,4.40
2016,03,12,02,11,4.80
2016,03,12,02,12,2.50
2016,03,12,02,13,3.40
2016,03,12,02,14,0.40
2016,03,12,02,15,0.50
2016,03,12,02,16,1.60
2016,03,12,02,17,2.10
2016,03,12,02,18,0.70
2016,03,12,02,19,1.30
2016,03,12,02,20,0.70
2016,03,12,02,21,0.50
2016,03,12,02,22,0.30
2016,03,12,02,23,0.30
2016,03,12,02,24,1.70
2016,03,12,02,25,2.90
2016,03,12,02,26,3.10
2016,03,12,02,27,1.70
2016,03,12,02,28,1.00
2016,03,12,02,29,0.00
2016,03,12,02,30,0.00
2016,03,12,02,31,0.00
2016,03,12,02,32,0.00
2016,03,12,02,33,0.00
2016,03,12,02,34,0.00
2016,03,12,02,35,0.70
2016,03,12,02,36,1.70
2016,03,12,02,37,0.90
2016,03,12,02,38,0.00
2016,03,12,02,39,0.00
2016,03,12,02,40,0.00
2016,03,12,02,41,0.00
2016,03,12,02,42,0.00
2016,03,12,02,43,0.00
2016,03,12,02,44,0.00
2016,03,12,02,45,0.70
2016,03,12,02,46,1.40
2016,03,12,02,47,1.00
2016,03,12,02,48,0.10
2016,03,12,02,49,0.10
2016,03,12,02,50,0.00
2016,03,12,02,51,0.00
2016,03,12,02,52,0.00
2016,03,12,02,53,0.00
2016,03,12,02,54,0.30
2016,03,12,02,55,1.50
2016,03,12,02,56,1.60
2016,03,12,02,57,0.40
2016,03,12,02,58,0.00
2016,03,12,02,59,0.00
2016,03,12,03,00,0.80
2016,03,12,03,01,3.10
2016,03,12,03,02,3.10
2016,03,12,03,03,2.40
2016,03,12,03,04,2.80
2016,03,12,03,05,2.00
2016,03,12,03,06,1.30
2016,03,12,03,07,2.30
2016,03,12,03,08,2.60
2016,03,12,03,09,1.70
2016,03,12,03,10,1.80
2016,03,12,03,11,0.40
2016,03,12,03,12,1.20
2016,03,12,03,13,2.80
2016,03,12,03,14,2.30
2016,03,12,03,15,2.60
2016,03,12,03,16,3.70
2016,03,12,03,17,2.90
2016,03,12,03,18,1.60
2016,03,12,03,19,1.40
2016,03,12,03,20,1.30
2016,03,12,03,21,1.00
2016,03,12,03,22,0.30
2016,03,12,03,23,0.10
2016,03,12,03,24,0.00
2016,03,12,03,25,0.00
2016,03,12,03,26,0.00
2016,03,12,03,27,1.70
2016,03,12,03,28,1.00
2016,03,12,03,29,0.40
2016,03,12,03,30,1.20
2016,03,12,03,31,1.50
2016,03,12,03,32,1.20
2016,03,12,03,33,0.00
2016,03,12,03,34,0.00
2016,03,12,03,35,0.00
2016,03,12,03,36,0.00
2016,03,12,03,37,0.00
2016,03,12,03,38,0.00
2016,03,12,03,39,0.00
2016,03,12,03,40,0.00
2016,03,12,03,41,0.00
2016,03,12,03,42,0.00
2016,03,12,03,43,0.00
2016,03,12,03,44,0.00
2016,03,12,03,45,0.00
2016,03,12,03,46,0.00
2016,03,12,03,47,0.00
2016,03,12,03,48,0.00
2016,03,12,03,49,0.00
2016,03,12,03,50,0.00
2016,03,12,03,51,0.00
2016,03,12,03,52,1.80
2016,03,12,03,53,2.80
2016,03,12,03,54,1.80
2016,03,12,03,55,1.00
2016,03,12,03,56,0.40
2016,03,12,03,57,0.60
2016,03,12,03,58,0.70
2016,03,12,03,59,0.50
2016,03,12,04,00,0.20
2016,03,12,04,01,0.00
2016,03,12,04,02,0.50
2016,03,12,04,03,2.30
2016,03,12,04,04,2.90
2016,03,12,04,05,3.10
2016,03,12,04,06,2.40
2016,03,12,04,07,1.80
2016,03,12,04,08,3.40
2016,03,12,04,09,4.00
2016,03,12,04,10,3.70
2016,03,12,04,11,3.60
2016,03,12,04,12,2.60
2016,03,12,04,13,3.00
2016,03,12,04,14,3.90
2016,03,12,04,15,3.50
2016,03,12,04,16,2.30
2016,03,12,04,17,2.30
2016,03,12,04,18,3.50
2016,03,12,04,19,4.10
2016,03,12,04,20,3.40
2016,03,12,04,21,3.00
2016,03,12,04,22,3.30
2016,03,12,04,23,2.40
2016,03,12,04,24,1.00
2016,03,12,04,25,1.70
2016,03,12,04,26,1.40
2016,03,12,04,27,0.80
2016,03,12,04,28,2.90
2016,03,12,04,29,3.80
2016,03,12,04,30,2.60
2016,03,12,04,31,3.00
2016,03,12,04,32,2.40
2016,03,12,04,33,2.80
2016,03,12,04,34,2.50
2016,03,12,04,35,2.60
2016,03,12,04,36,2.70
2016,03,12,04,37,2.00
2016,03,12,04,38,1.10
2016,03,12,04,39,0.90
2016,03,12,04,40,1.10
2016,03,12,04,41,1.00
2016,03,12,04,42,1.40
2016,03,12,04,43,1.70
2016,03,12,04,44,0.90
2016,03,12,04,45,0.00
2016,03,12,04,46,0.00
2016,03,12,04,47,0.00
2016,03,12,04,48,0.00
2016,03,12,04,49,0.00
2016,03,12,04,50,0.00
2016,03,12,04,51,0.00
2016,03,12,04,52,0.00
2016,03,12,04,53,0.00
2016,03,12,04,54,0.00
2016,03,12,04,55,0.00
2016,03,12,04,56,2.10
2016,03,12,04,57,3.40
2016,03,12,04,58,2.60
2016,03,12,04,59,1.20
2016,03,12,05,00,0.20
2016,03,12,05,01,0.40
2016,03,12,05,02,0.00
2016,03,12,05,03,0.00
2016,03,12,05,04,0.00
2016,03,12,05,05,0.00
2016,03,12,05,06,0.00
2016,03,12,05,07,0.00
2016,03,12,05,08,0.30
2016,03,12,05,09,1.20
2016,03,12,05,10,1.50
2016,03,12,05,11,1.20
2016,03,12,05,12,1.50
2016,03,12,05,13,0.70
2016,03,12,05,14,1.10
2016,03,12,05,15,2.10
2016,03,12,05,16,1.60
2016,03,12,05,17,0.00
2016,03,12,05,18,0.40
2016,03,12,05,19,2.60
2016,03,12,05,20,4.90
2016,03,12,05,21,6.70
2016,03,12,05,22,7.80
2016,03,12,05,23,9.00
2016,03,12,05,24,9.10
2016,03,12,05,25,10.10
2016,03,12,05,26,8.30
2016,03,12,05,27,7.10
2016,03,12,05,28,6.50
2016,03,12,05,29,5.40
2016,03,12,05,30,3.90
2016,03,12,05,31,3.40
2016,03,12,05,32,4.20
2016,03,12,05,33,4.70
2016,03,12,05,34,3.60
2016,03,12,05,35,2.50
2016,03,12,05,36,2.00
2016,03,12,05,37,1.20
2016,03,12,05,38,0.10
2016,03,12,05,39,0.00
2016,03,12,05,40,0.50
2016,03,12,05,41,0.60
2016,03,12,05,42,0.70
2016,03,12,05,43,2.10
2016,03,12,05,44,0.90
2016,03,12,05,45,0.50
2016,03,12,05,46,0.50
2016,03,12,05,47,0.00
2016,03,12,05,48,0.00
2016,03,12,05,49,0.00
2016,03,12,05,50,0.00
2016,03,12,05,51,0.00
2016,03,12,05,52,0.00
2016,03,12,05,53,0.00
2016,03,12,05,54,2.30
2016,03,12,05,55,3.70
2016,03,12,05,56,4.30
2016,03,12,05,57,5.00
2016,03,12,05,58,4.70
2016,03,12,05,59,2.80
2016,03,12,06,00,1.80
2016,03,12,06,01,2.40
2016,03,12,06,02,1.20
2016,03,12,06,03,2.40
2016,03,12,06,04,7.20
2016,03,12,06,05,6.40
2016,03,12,06,06,3.10
2016,03,12,06,07,1.20
2016,03,12,06,08,0.50
2016,03,12,06,09,1.90
2016,03,12,06,10,5.60
2016,03,12,06,11,5.10
2016,03,12,06,12,1.80
2016,03,12,06,13,1.00
2016,03,12,06,14,0.20
2016,03,12,06,15,1.50
2016,03,12,06,16,1.80
2016,03,12,06,17,0.90
2016,03,12,06,18,1.40
2016,03,12,06,19,2.20
2016,03,12,06,20,0.50
2016,03,12,06,21,1.40
2016,03,12,06,22,1.40
2016,03,12,06,23,1.50
2016,03,12,06,24,1.00
2016,03,12,06,25,0.50
2016,03,12,06,26,0.00
2016,03,12,06,27,0.00
2016,03,12,06,28,0.00
2016,03,12,06,29,0.00
2016,03,12,06,30,0.00
2016,03,12,06,31,0.00
2016,03,12,06,32,0.50
2016,03,12,06,33,0.70
2016,03,12,06,34,1.00
2016,03,12,06,35,0.40
2016,03,12,06,36,1.30
2016,03,12,06,37,2.10
2016,03,12,06,38,1.50
2016,03,12,06,39,2.00
2016,03,12,06,40,1.80
2016,03,12,06,41,1.00
2016,03,12,06,42,0.80
2016,03,12,06,43,0.80
2016,03,12,06,44,1.30
2016,03,12,06,45,1.80
2016,03,12,06,46,3.20
2016,03,12,06,47,2.50
2016,03,12,06,48,2.40
2016,03,12,06,49,2.90
2016,03,12,06,50,2.10
2016,03,12,06,51,2.10
2016,03,12,06,52,3.60
2016,03,12,06,53,2.20
2016,03,12,06,54,2.30
2016,03,12,06,55,2.00
2016,03,12,06,56,0.40
2016,03,12,06,57,0.00
2016,03,12,06,58,0.00
2016,03,12,06,59,0.00
2016,03,12,07,00,0.00
2016,03,12,07,01,2.40
2016,03,12,07,02,3.30
2016,03,12,07,03,1.50
2016,03,12,07,04,2.30
2016,03,12,07,05,4.00
2016,03,12,07,06,4.80
2016,03,12,07,07,3.40
2016,03,12,07,08,4.50
2016,03,12,07,09,3.10
2016,03,12,07,10,4.10
2016,03,12,07,11,3.70
2016,03,12,07,12,2.00
2016,03,12,07,13,2.80
2016,03,12,07,14,5.70
2016,03,12,07,15,9.40
2016,03,12,07,16,4.50
2016,03,12,07,17,6.20
2016,03,12,07,18,6.70
2016,03,12,07,19,8.30
2016,03,12,07,20,10.30
2016,03,12,07,21,11.90
2016,03,12,07,22,9.40
2016,03,12,07,23,11.00
2016,03,12,07,24,8.20
2016,03,12,07,25,10.20
2016,03,12,07,26,11.70
2016,03,12,07,27,14.70
2016,03,12,07,28,21.90
2016,03,12,07,29,16.50
2016,03,12,07,30,9.10
2016,03,12,07,31,5.30
2016,03,12,07,32,5.30
2016,03,12,07,33,10.30
2016,03,12,07,34,8.80
2016,03,12,07,35,8.40
2016,03,12,07,36,12.70
2016,03,12,07,37,11.80
2016,03,12,07,38,7.40
2016,03,12,07,39,8.90
2016,03,12,07,40,8.50
2016,03,12,07,41,6.80
2016,03,12,07,42,7.80
2016,03,12,07,43,8.80
2016,03,12,07,44,6.10
2016,03,12,07,45,10.40
2016,03,12,07,46,5.30
2016,03,12,07,47,3.40
2016,03,12,07,48,6.40
2016,03,12,07,49,7.20
2016,03,12,07,50,8.90
2016,03,12,07,51,8.10
2016,03,12,07,52,12.60
2016,03,12,07,53,10.20
2016,03,12,07,54,7.60
2016,03,12,07,55,10.00
2016,03,12,07,56,7.10
2016,03,12,07,57,7.60
2016,03,12,07,58,7.10
2016,03,12,07,59,2.60
2016,03,12,08,00,2.60
2016,03,12,08,01,10.30
2016,03,12,08,02,7.80
2016,03,12,08,03,7.00
2016,03,12,08,04,10.80
2016,03,12,08,05,13.20
2016,03,12,08,06,10.10
2016,03,12,08,07,12.30
2016,03,12,08,08,14.60
2016,03,12,08,09,10.60
2016,03,12,08,10,5.60
2016,03,12,08,11,5.10
2016,03,12,08,12,8.60
2016,03,12,08,13,8.30
2016,03,12,08,14,5.00
2016,03,12,08,15,10.70
2016,03,12,08,16,9.50
2016,03,12,08,17,10.80
2016,03,12,08,18,8.90
2016,03,12,08,19,10.40
2016,03,12,08,20,10.20
2016,03,12,08,21,9.60
2016,03,12,08,22,7.70
2016,03,12,08,23,7.50
2016,03,12,08,24,7.00
2016,03,12,08,25,8.70
2016,03,12,08,26,13.20
2016,03,12,08,27,10.20
2016,03,12,08,28,11.40
2016,03,12,08,29,9.90
2016,03,12,08,30,9.60
2016,03,12,08,31,14.50
2016,03,12,08,32,13.30
2016,03,12,08,33,13.20
2016,03,12,08,34,12.40
2016,03,12,08,35,9.80
2016,03,12,08,36,7.60
2016,03,12,08,37,15.00
2016,03,12,08,38,12.10
2016,03,12,08,39,8.30
2016,03,12,08,40,10.30
2016,03,12,08,41,8.50
2016,03,12,08,42,10.90
2016,03,12,08,43,17.70
2016,03,12,08,44,21.10
2016,03,12,08,45,18.30
2016,03,12,08,46,17.40
2016,03,12,08,47,15.90
2016,03,12,08,48,14.60
2016,03,12,08,49,14.90
2016,03,12,08,50,8.90
2016,03,12,08,51,11.00
2016,03,12,08,52,9.40
2016,03,12,08,53,11.60
2016,03,12,08,54,11.90
2016,03,12,08,55,14.40
2016,03,12,08,56,10.40
2016,03,12,08,57,9.60
2016,03,12,08,58,11.00
2016,03,12,08,59,10.30
2016,03,12,09,00,14.10
2016,03,12,09,01,13.50
2016,03,12,09,02,7.60
2016,03,12,09,03,10.70
2016,03,12,09,04,7.30
2016,03,12,09,05,10.20
2016,03,12,09,06,7.80
2016,03,12,09,07,10.70
2016,03,12,09,08,14.00
2016,03,12,09,09,13.20
2016,03,12,09,10,7.00
2016,03,12,09,11,7.50
2016,03,12,09,12,11.90
2016,03,12,09,13,10.50
2016,03,12,09,14,9.10
2016,03,12,09,15,8.70
2016,03,12,09,16,4.40
2016,03,12,09,17,6.10
2016,03,12,09,18,6.80
2016,03,12,09,19,8.40
2016,03,12,09,20,6.00
2016,03,12,09,21,13.80
2016,03,12,09,22,15.40
2016,03,12,09,23,8.10
2016,03,12,09,24,8.80
2016,03,12,09,25,11.40
2016,03,12,09,26,12.40
2016,03,12,09,27,8.00
2016,03,12,09,28,10.50
2016,03,12,09,29,13.40
2016,03,12,09,30,12.30
2016,03,12,09,31,8.10
2016,03,12,09,32,10.60
2016,03,12,09,33,13.10
2016,03,12,09,34,14.60
2016,03,12,09,35,12.40
2016,03,12,09,36,15.10
2016,03,12,09,37,13.00
2016,03,12,09,38,12.90
2016,03,12,09,39,12.90
2016,03,12,09,40,15.80
2016,03,12,09,41,14.60
2016,03,12,09,42,16.50
2016,03,12,09,43,15.30
2016,03,12,09,44,12.90
2016,03,12,09,45,11.40
2016,03,12,09,46,12.00
2016,03,12,09,47,18.30
2016,03,12,09,48,13.00
2016,03,12,09,49,10.50
2016,03,12,09,50,12.70
2016,03,12,09,51,16.60
2016,03,12,09,52,15.10
2016,03,12,09,53,13.60
2016,03,12,09,54,14.30
2016,03,12,09,55,9.00
2016,03,12,09,56,10.00
2016,03,12,09,57,11.40
2016,03,12,09,58,12.30
2016,03,12,09,59,13.00
2016,03,12,10,00,10.70
2016,03,12,10,01,8.30
2016,03,12,10,02,7.20
2016,03,12,10,03,7.30
2016,03,12,10,04,16.50
2016,03,12,10,05,10.50
2016,03,12,10,06,13.20
2016,03,12,10,07,13.20
2016,03,12,10,08,15.10
2016,03,12,10,09,13.00
2016,03,12,10,10,9.50
2016,03,12,10,11,6.50
2016,03,12,10,12,6.50
2016,03,12,10,13,11.10
2016,03,12,10,14,10.60
2016,03,12,10,15,8.90
2016,03,12,10,16,8.70
2016,03,12,10,17,13.80
2016,03,12,10,18,10.30
2016,03,12,10,19,14.80
2016,03,12,10,20,12.80
2016,03,12,10,21,10.90
2016,03,12,10,22,11.60
2016,03,12,10,23,7.50
2016,03,12,10,24,7.80
2016,03,12,10,25,11.10
2016,03,12,10,26,10.30
2016,03,12,10,27,7.80
2016,03,12,10,28,5.30
2016,03,12,10,29,8.60
2016,03,12,10,30,9.70
2016,03,12,10,31,5.80
2016,03,12,10,32,6.80
2016,03,12,10,33,8.10
2016,03,12,10,34,8.60
2016,03,12,10,35,7.80
2016,03,12,10,36,5.30
2016,03,12,10,37,7.30
2016,03,12,10,38,5.20
2016,03,12,10,39,5.20
2016,03,12,10,40,6.10
2016,03,12,10,41,8.90
2016,03,12,10,42,7.40
2016,03,12,10,43,5.90
2016,03,12,10,44,6.20
2016,03,12,10,45,6.10
2016,03,12,10,46,5.70
2016,03,12,10,47,7.00
2016,03,12,10,48,8.60
2016,03,12,10,49,8.90
2016,03,12,10,50,7.60
2016,03,12,10,51,7.70
2016,03,12,10,52,2.60
2016,03,12,10,53,1.90
2016,03,12,10,54,8.60
2016,03,12,10,55,14.20
2016,03,12,10,56,14.10
2016,03,12,10,57,11.00
2016,03,12,10,58,9.10
2016,03,12,10,59,12.60
2016,03,12,11,00,10.50
2016,03,12,11,01,14.00
2016,03,12,11,02,10.00
2016,03,12,11,03,10.80
2016,03,12,11,04,8.10
2016,03,12,11,05,7.30
2016,03,12,11,06,7.10
2016,03,12,11,07,7.10
2016,03,12,11,08,10.50
2016,03,12,11,09,8.00
2016,03,12,11,10,9.20
2016,03,12,11,11,10.50
2016,03,12,11,12,4.80
2016,03,12,11,13,5.80
2016,03,12,11,14,5.70
2016,03,12,11,15,2.80
2016,03,12,11,16,4.20
2016,03,12,11,17,5.30
2016,03,12,11,18,2.80
2016,03,12,11,19,3.10
2016,03,12,11,20,5.00
2016,03,12,11,21,3.30
2016,03,12,11,22,3.30
2016,03,12,11,23,2.50
2016,03,12,11,24,5.90
2016,03,12,11,25,5.00
2016,03,12,11,26,2.40
2016,03,12,11,27,3.70
2016,03,12,11,28,3.60
2016,03,12,11,29,3.30
2016,03,12,11,30,3.30
2016,03,12,11,31,4.80
2016,03,12,11,32,7.00
2016,03,12,11,33,6.10
2016,03,12,11,34,5.60
2016,03,12,11,35,6.80
2016,03,12,11,36,9.20
2016,03,12,11,37,9.60
2016,03,12,11,38,8.80
2016,03,12,11,39,8.90
2016,03,12,11,40,9.00
2016,03,12,11,41,5.60
2016,03,12,11,42,3.90
2016,03,12,11,43,3.70
2016,03,12,11,44,7.10
2016,03,12,11,45,4.80
2016,03,12,11,46,6.50
2016,03,12,11,47,6.30
2016,03,12,11,48,5.70
2016,03,12,11,49,8.00
2016,03,12,11,50,6.70
2016,03,12,11,51,7.20
2016,03,12,11,52,5.90
2016,03,12,11,53,4.00
2016,03,12,11,54,5.00
2016,03,12,11,55,8.00
2016,03,12,11,56,8.20
2016,03,12,11,57,8.00
2016,03,12,11,58,12.10
2016,03,12,11,59,11.60
2016,03,12,12,00,7.50
2016,03,12,12,01,8.30
2016,03,12,12,02,9.20
2016,03,12,12,03,6.00
2016,03,12,12,04,6.70
2016,03,12,12,05,9.50
2016,03,12,12,06,9.10
2016,03,12,12,07,11.10
2016,03,12,12,08,15.60
2016,03,12,12,09,10.80
2016,03,12,12,10,9.40
2016,03,12,12,11,10.20
2016,03,12,12,12,9.20
2016,03,12,12,13,10.40
2016,03,12,12,14,10.70
2016,03,12,12,15,10.80
2016,03,12,12,16,6.00
2016,03,12,12,17,9.60
2016,03,12,12,18,7.10
2016,03,12,12,19,10.90
2016,03,12,12,20,7.10
2016,03,12,12,21,9.40
2016,03,12,12,22,9.50
2016,03,12,12,23,10.40
2016,03,12,12,24,10.00
2016,03,12,12,25,12.50
2016,03,12,12,26,11.70
2016,03,12,12,27,9.90
2016,03,12,12,28,6.30
2016,03,12,12,29,8.30
2016,03,12,12,30,8.20
2016,03,12,12,31,6.40
2016,03,12,12,32,7.90
2016,03,12,12,33,5.30
2016,03,12,12,34,6.50
2016,03,12,12,35,8.10
2016,03,12,12,36,7.10
2016,03,12,12,37,7.70
2016,03,12,12,38,5.50
2016,03,12,12,39,6.20
2016,03,12,12,40,5.70
2016,03,12,12,41,7.00
2016,03,12,12,42,7.00
2016,03,12,12,43,3.70
2016,03,12,12,44,6.60
2016,03,12,12,45,12.10
2016,03,12,12,46,10.00
2016,03,12,12,47,10.20
2016,03,12,12,48,9.40
2016,03,12,12,49,6.90
2016,03,12,12,50,3.90
2016,03,12,12,51,8.30
2016,03,12,12,52,12.10
2016,03,12,12,53,12.10
2016,03,12,12,54,10.40
2016,03,12,12,55,8.90
2016,03,12,12,56,10.50
2016,03,12,12,57,7.50
2016,03,12,12,58,8.50
2016,03,12,12,59,9.30
2016,03,12,13,00,4.80
2016,03,12,13,01,6.60
2016,03,12,13,02,7.70
2016,03,12,13,03,7.30
2016,03,12,13,04,10.80
2016,03,12,13,05,5.30
2016,03,12,13,06,6.00
2016,03,12,13,07,9.50
2016,03,12,13,08,9.20
2016,03,12,13,09,5.70
2016,03,12,13,10,5.00
2016,03,12,13,11,7.30
2016,03,12,13,12,7.10
2016,03,12,13,13,10.50
2016,03,12,13,14,6.70
2016,03,12,13,15,4.20
2016,03,12,13,16,7.30
2016,03,12,13,17,4.20
2016,03,12,13,18,2.80
2016,03,12,13,19,7.00
2016,03,12,13,20,7.20
2016,03,12,13,21,9.10
2016,03,12,13,22,6.10
2016,03,12,13,23,4.70
2016,03,12,13,24,6.40
2016,03,12,13,25,8.80
2016,03,12,13,26,6.00
2016,03,12,13,27,3.70
2016,03,12,13,28,5.80
2016,03,12,13,29,10.20
2016,03,12,13,30,7.70
2016,03,12,13,31,9.10
2016,03,12,13,32,9.30
2016,03,12,13,33,5.90
2016,03,12,13,34,6.30
2016,03,12,13,35,10.10
2016,03,12,13,36,6.10
2016,03,12,13,37,4.40
2016,03,12,13,38,7.00
2016,03,12,13,39,7.30
2016,03,12,13,40,7.80
2016,03,12,13,41,7.60
2016,03,12,13,42,6.00
2016,03,12,13,43,4.90
2016,03,12,13,44,3.90
2016,03,12,13,45,8.40
2016,03,12,13,46,9.70
2016,03,12,13,47,5.20
2016,03,12,13,48,7.90
2016,03,12,13,49,8.40
2016,03,12,13,50,7.80
2016,03,12,13,51,6.50
2016,03,12,13,52,6.90
2016,03,12,13,53,10.90
2016,03,12,13,54,7.60
2016,03,12,13,55,9.70
2016,03,12,13,56,10.80
2016,03,12,13,57,8.90
2016,03,12,13,58,8.10
2016,03,12,13,59,10.00
2016,03,12,14,00,9.40
2016,03,12,14,01,7.30
2016,03,12,14,02,6.10
2016,03,12,14,03,7.70
2016,03,12,14,04,8.10
2016,03,12,14,05,8.40
2016,03,12,14,06,8.10
2016,03,12,14,07,7.20
2016,03,12,14,08,7.00
2016,03,12,14,09,9.40
2016,03,12,14,10,9.20
2016,03,12,14,11,8.40
2016,03,12,14,12,11.60
2016,03,12,14,13,6.50
2016,03,12,14,14,7.70
2016,03,12,14,15,6.40
2016,03,12,14,16,8.80
2016,03,12,14,17,7.50
2016,03,12,14,18,7.30
2016,03,12,14,19,6.10
2016,03,12,14,20,6.10
2016,03,12,14,21,7.90
2016,03,12,14,22,6.60
2016,03,12,14,23,9.30
2016,03,12,14,24,8.90
2016,03,12,14,25,6.40
2016,03,12,14,26,9.20
2016,03,12,14,27,7.20
2016,03,12,14,28,6.60
2016,03,12,14,29,10.70
2016,03,12,14,30,10.40
2016,03,12,14,31,7.00
2016,03,12,14,32,8.60
2016,03,12,14,33,9.30
2016,03,12,14,34,9.00
2016,03,12,14,35,6.80
2016,03,12,14,36,8.20
2016,03,12,14,37,5.30
2016,03,12,14,38,2.30
2016,03,12,14,39,4.10
2016,03,12,14,40,6.90
2016,03,12,14,41,8.40
2016,03,12,14,42,7.20
2016,03,12,14,43,6.10
2016,03,12,14,44,4.50
2016,03,12,14,45,9.10
2016,03,12,14,46,8.10
2016,03,12,14,47,4.50
2016,03,12,14,48,2.10
2016,03,12,14,49,4.20
2016,03,12,14,50,4.10
2016,03,12,14,51,7.10
2016,03,12,14,52,4.00
2016,03,12,14,53,4.30
2016,03,12,14,54,2.70
2016,03,12,14,55,4.20
2016,03,12,14,56,9.10
2016,03,12,14,57,5.80
2016,03,12,14,58,6.00
2016,03,12,14,59,4.80
2016,03,12,15,00,3.50
2016,03,12,15,01,5.40
2016,03,12,15,02,2.90
2016,03,12,15,03,6.40
2016,03,12,15,04,7.60
2016,03,12,15,05,13.10
2016,03,12,15,06,12.60
2016,03,12,15,07,10.80
2016,03,12,15,08,9.60
2016,03,12,15,09,9.70
2016,03,12,15,10,10.00
2016,03,12,15,11,12.90
2016,03,12,15,12,15.10
2016,03,12,15,13,14.10
2016,03,12,15,14,9.80
2016,03,12,15,15,15.10
2016,03,12,15,16,11.10
2016,03,12,15,17,11.60
2016,03,12,15,18,14.40
2016,03,12,15,19,12.10
2016,03,12,15,20,11.10
2016,03,12,15,21,14.30
2016,03,12,15,22,14.30
2016,03,12,15,23,9.60
2016,03,12,15,24,8.40
2016,03,12,15,25,11.00
2016,03,12,15,26,9.40
2016,03,12,15,27,11.60
2016,03,12,15,28,11.20
2016,03,12,15,29,10.90
2016,03,12,15,30,13.50
2016,03,12,15,31,15.60
2016,03,12,15,32,13.40
2016,03,12,15,33,9.60
2016,03,12,15,34,12.00
2016,03,12,15,35,9.20
2016,03,12,15,36,10.00
2016,03,12,15,37,9.50
2016,03,12,15,38,9.10
2016,03,12,15,39,8.50
2016,03,12,15,40,9.80
2016,03,12,15,41,11.30
2016,03,12,15,42,13.90
2016,03,12,15,43,16.60
2016,03,12,15,44,11.20
2016,03,12,15,45,19.20
2016,03,12,15,46,18.60
2016,03,12,15,47,15.60
2016,03,12,15,48,15.10
2016,03,12,15,49,12.70
2016,03,12,15,50,14.80
2016,03,12,15,51,16.20
2016,03,12,15,52,12.00
2016,03,12,15,53,10.00
2016,03,12,15,54,13.60
2016,03,12,15,55,11.20
2016,03,12,15,56,14.30
2016,03,12,15,57,15.20
2016,03,12,15,58,17.50
2016,03,12,15,59,16.00
2016,03,12,16,00,12.20
2016,03,12,16,01,14.80
2016,03,12,16,02,12.90
2016,03,12,16,03,9.10
2016,03,12,16,04,11.40
2016,03,12,16,05,6.00
2016,03,12,16,06,6.70
2016,03,12,16,07,11.30
2016,03,12,16,08,11.30
2016,03,12,16,09,13.00
2016,03,12,16,10,11.00
2016,03,12,16,11,8.60
2016,03,12,16,12,10.90
2016,03,12,16,13,9.70
2016,03,12,16,14,9.20
2016,03,12,16,15,9.50
2016,03,12,16,16,11.80
2016,03,12,16,17,11.60
2016,03,12,16,18,14.60
2016,03,12,16,19,13.10
2016,03,12,16,20,10.80
2016,03,12,16,21,7.60
2016,03,12,16,22,9.80
2016,03,12,16,23,7.70
2016,03,12,16,24,8.50
2016,03,12,16,25,7.30
2016,03,12,16,26,7.60
2016,03,12,16,27,11.90
2016,03,12,16,28,10.90
2016,03,12,16,29,10.70
2016,03,12,16,30,12.40
2016,03,12,16,31,5.60
2016,03,12,16,32,5.00
2016,03,12,16,33,6.70
2016,03,12,16,34,8.20
2016,03,12,16,35,10.50
2016,03,12,16,36,8.30
2016,03,12,16,37,10.80
2016,03,12,16,38,11.00
2016,03,12,16,39,8.50
2016,03,12,16,40,8.20
2016,03,12,16,41,7.30
2016,03,12,16,42,10.10
2016,03,12,16,43,8.40
2016,03,12,16,44,9.80
2016,03,12,16,45,8.70
2016,03,12,16,46,8.20
2016,03,12,16,47,6.20
2016,03,12,16,48,11.00
2016,03,12,16,49,8.80
2016,03,12,16,50,12.70
2016,03,12,16,51,12.30
2016,03,12,16,52,15.10
2016,03,12,16,53,10.80
2016,03,12,16,54,10.90
2016,03,12,16,55,11.60
2016,03,12,16,56,12.40
2016,03,12,16,57,12.90
2016,03,12,16,58,12.20
2016,03,12,16,59,8.10
2016,03,12,17,00,6.80
2016,03,12,17,01,9.40
2016,03,12,17,02,13.00
2016,03,12,17,03,11.40
2016,03,12,17,04,11.90
2016,03,12,17,05,10.20
2016,03,12,17,06,9.70
2016,03,12,17,07,8.50
2016,03,12,17,08,7.70
2016,03,12,17,09,11.30
2016,03,12,17,10,16.70
2016,03,12,17,11,12.10
2016,03,12,17,12,12.40
2016,03,12,17,13,12.30
2016,03,12,17,14,13.20
2016,03,12,17,15,12.30
2016,03,12,17,16,10.50
2016,03,12,17,17,9.80
2016,03,12,17,18,9.40
2016,03,12,17,19,8.20
2016,03,12,17,20,11.20
2016,03,12,17,21,12.70
2016,03,12,17,22,15.10
2016,03,12,17,23,10.60
2016,03,12,17,24,10.90
2016,03,12,17,25,10.40
2016,03,12,17,26,12.70
2016,03,12,17,27,11.30
2016,03,12,17,28,11.70
2016,03,12,17,29,11.00
2016,03,12,17,30,12.30
2016,03,12,17,31,7.60
2016,03,12,17,32,7.20
2016,03,12,17,33,7.60
2016,03,12,17,34,7.10
2016,03,12,17,35,10.00
2016,03,12,17,36,8.70
2016,03,12,17,37,9.70
2016,03,12,17,38,9.20
2016,03,12,17,39,6.40
2016,03,12,17,40,7.60
2016,03,12,17,41,8.70
2016,03,12,17,42,9.40
2016,03,12,17,43,10.30
2016,03,12,17,44,12.30
2016,03,12,17,45,11.10
2016,03,12,17,46,10.40
2016,03,12,17,47,8.00
2016,03,12,17,48,5.90
2016,03,12,17,49,8.30
2016,03,12,17,50,7.00
2016,03,12,17,51,6.90
2016,03,12,17,52,7.50
2016,03,12,17,53,6.10
2016,03,12,17,54,6.30
2016,03,12,17,55,7.10